User: anonymous   Login
Location: Unspecified
(0.0000°N, 0.0000°E)
Time: 10:23:54
(UTC+00:00)
Language:

NNS O-2 - Orbit

View from above orbital plane
View from above orbital plane
View from above satellite
View from above satellite

Ground track
Ground track

The orbit data is extracted from the following two-line orbital elements,

1   965U 64083D   20219.45644488 +.00000014 +00000-0 +52279-5 0  9993
2   965 090.0173 193.6810 0042581 058.2491 053.2460 13.56744525753422
Epoch (UTC): 06 August 2020 10:57:16
Eccentricity: 0.0042581
inclination: 90.0173°
perigee height: 1016 km
apogee height: 1079 km
right ascension of ascending node: 193.6810°
argument of perigee: 58.2491°
revolutions per day: 13.56744525
mean anomaly at epoch: 53.2460°
orbit number at epoch: 75342

The dashed part of the orbit path shows where the satellite is in the earth's shadow,  

DLR